SCP
0 0 0 0 0 0 0 0 0 0 0 0 0 0 0 0 0 0 0 0 0 0
0 0 0 0 0 0 0 0 0 0 0 0 0 0 0 0 0 0 0 0 0 0
0 0 0 0 0 0 0 0 0 0 0 0 0 0 0 0 0 0 0 0 0 0
0 0 0 0 0 0 0 0 0 0 0 0 0 0 0 0 0 0 0 0 0 0
0 0 0 0 0 0 0 0 0 0 0 0 0 0 0 0 0 0 0 0 0 0
0 0 0 0 0 0 0 0 0 0 0 0 0 0 0 0 0 0 0 0 0 0
0 0 0 0 0 0 0 0 0 0 0 0 0 0 0 0 0 0 0 0 0 0
0 0 0 0 0 0 0 0 0 0 0 0 0 0 0 0 0 0 0 0 0 0
0 0 0 0 0 0 0 0 0 0 0 0 0 0 0 0 0 0 0 0 0 0
0 0 0 0 0 0 0 0 0 0 0 0 0 0 0 0 0 0 0 0 0 0
0 0 0 0 0 0 0 0 0 0 0 0 0 0 0 0 0 0 0 0 0 0
0 0 0 0 0 0 0 0 0 0 0 0 0 0 0 0 0 0 0 0 0 0
0 0 0 0 0 0 0 0 0 0 0 0 0 0 0 0 0 0 0 0 0 0
0 0 0 0 0 0 0 0 0 0 0 0 0 0 0 0 0 0 0 0 0 0
Wind_Speed_500mb
69 65 57 54 53 52 51 49 47 43 40 36 33 31 29 26 23 21 19 17 15 13
74 69 62 57 54 51 49 48 44 41 37 34 32 31 29 26 24 23 20 17 16 14
78 70 65 59 57 53 49 46 44 42 38 36 35 33 30 27 25 23 21 18 16 15
80 73 66 62 57 54 51 48 45 43 41 39 37 34 31 28 25 24 21 19 18 18
80 75 71 66 61 58 55 49 45 45 43 40 38 35 32 29 26 24 22 21 20 20
81 79 75 69 64 60 55 51 49 46 43 41 39 36 33 30 27 25 24 24 24 24
82 79 75 70 66 62 55 52 48 45 43 42 38 36 34 31 29 28 27 27 27 30
78 75 72 70 66 61 55 51 47 45 45 41 40 38 34 32 31 31 31 32 33 35
74 74 72 68 65 60 55 52 50 47 44 43 40 37 34 34 34 35 34 35 34 35
74 72 69 65 61 59 56 54 52 49 46 43 40 37 36 38 36 33 32 32 33 35
75 72 69 65 62 61 57 52 49 49 45 41 37 39 36 32 30 30 30 30 32 33
76 75 73 70 66 61 56 53 51 46 43 39 36 35 32 27 26 26 25 27 29 32
73 73 73 69 64 59 54 52 48 46 40 38 33 28 25 20 18 19 21 26 31 36
67 67 66 63 58 56 54 50 47 43 39 32 26 17 14 12 12 18 23 30 38 42
Wind_Direction_500mb
206 209 207 206 204 203 202 201 200 198 196 193 193 195 197 198 200 204 207 211 215 221
208 209 208 205 206 206 206 206 205 204 202 200 200 203 204 205 208 212 216 221 229 234
210 211 210 208 209 209 211 212 210 208 206 207 207 209 211 212 215 219 224 230 238 249
211 213 213 213 213 213 215 215 212 211 211 212 213 214 216 218 223 228 234 240 249 259
212 212 213 213 212 214 215 215 214 213 213 215 217 218 221 225 229 236 243 249 255 263
212 212 213 213 212 215 215 215 214 215 218 219 221 222 225 229 235 241 249 256 264 271
213 212 213 214 214 216 217 218 217 218 220 221 222 224 227 232 239 247 254 262 268 274
214 213 213 214 215 216 217 217 217 218 218 220 222 226 231 237 245 252 259 265 272 277
211 211 212 213 213 213 212 212 213 214 217 221 224 228 233 240 246 254 261 267 273 277
208 208 209 209 209 209 208 208 209 212 216 219 222 227 234 243 251 257 262 266 270 274
205 203 202 203 203 203 205 205 206 207 211 214 217 229 236 243 248 254 259 265 275 283
202 198 198 198 200 201 200 197 199 201 203 206 211 229 234 236 242 253 264 273 280 288
198 198 196 197 195 193 193 194 192 192 194 199 205 221 231 231 243 258 272 284 295 296
193 194 195 191 188 187 186 185 183 184 182 188 195 206 223 232 255 278 289 296 293 297
Wind_Speed_850mb
69 65 57 54 53 52 51 49 47 43 40 36 33 31 29 26 23 21 19 17 15 13
74 69 62 57 54 51 49 48 44 41 37 34 32 31 29 26 24 23 20 17 16 14
78 70 65 59 57 53 49 46 44 42 38 36 35 33 30 27 25 23 21 18 16 15
80 73 66 62 57 54 51 48 45 43 41 39 37 34 31 28 25 24 21 19 18 18
80 75 71 66 61 58 55 49 45 45 43 40 38 35 32 29 26 24 22 21 20 20
81 79 75 69 64 60 55 51 49 46 43 41 39 36 33 30 27 25 24 24 24 24
82 79 75 70 66 62 55 52 48 45 43 42 38 36 34 31 29 28 27 27 27 30
78 75 72 70 66 61 55 51 47 45 45 41 40 38 34 32 31 31 31 32 33 35
74 74 72 68 65 60 55 52 50 47 44 43 40 37 34 34 34 35 34 35 34 35
74 72 69 65 61 59 56 54 52 49 46 43 40 37 36 38 36 33 32 32 33 35
75 72 69 65 62 61 57 52 49 49 45 41 37 39 36 32 30 30 30 30 32 33
76 75 73 70 66 61 56 53 51 46 43 39 36 35 32 27 26 26 25 27 29 32
73 73 73 69 64 59 54 52 48 46 40 38 33 28 25 20 18 19 21 26 31 36
67 67 66 63 58 56 54 50 47 43 39 32 26 17 14 12 12 18 23 30 38 42
Wind_Direction_850mb
206 209 207 206 204 203 202 201 200 198 196 193 193 195 197 198 200 204 207 211 215 221
208 209 208 205 206 206 206 206 205 204 202 200 200 203 204 205 208 212 216 221 229 234
210 211 210 208 209 209 211 212 210 208 206 207 207 209 211 212 215 219 224 230 238 249
211 213 213 213 213 213 215 215 212 211 211 212 213 214 216 218 223 228 234 240 249 259
212 212 213 213 212 214 215 215 214 213 213 215 217 218 221 225 229 236 243 249 255 263
212 212 213 213 212 215 215 215 214 215 218 219 221 222 225 229 235 241 249 256 264 271
213 212 213 214 214 216 217 218 217 218 220 221 222 224 227 232 239 247 254 262 268 274
214 213 213 214 215 216 217 217 217 218 218 220 222 226 231 237 245 252 259 265 272 277
211 211 212 213 213 213 212 212 213 214 217 221 224 228 233 240 246 254 261 267 273 277
208 208 209 209 209 209 208 208 209 212 216 219 222 227 234 243 251 257 262 266 270 274
205 203 202 203 203 203 205 205 206 207 211 214 217 229 236 243 248 254 259 265 275 283
202 198 198 198 200 201 200 197 199 201 203 206 211 229 234 236 242 253 264 273 280 288
198 198 196 197 195 193 193 194 192 192 194 199 205 221 231 231 243 258 272 284 295 296
193 194 195 191 188 187 186 185 183 184 182 188 195 206 223 232 255 278 289 296 293 297